loading
|
Showing default

OPS 5712 (P/L 153), 2874

Orbit data source: Space-Track

OPS 5712 (P/L 153), 2874 is an American payload satellite in LEO that was launched on Wed, 31 May 1967 UTC via a THOR SLV-2 AGENA D launch vehicle from the Air Force Western Test Range (AFWTR). Payloads include a variety of satellites, spacecraft, and rockets equipped with specific instruments for various scientific and technological missions. These include communications satellites like Starlink; space stations such as the ISS; scientific satellites like the Hubble; Earth observation satellites from companies like Planet Labs, Umbra, and HawkEye 360; GPS; miniature CubeSats for education and research; and military/defense satellites.

Loading next visibility...
Loading greatness...
OPS 5712 (P/L 153) details
Identifier
2874, 1967-053H
Orbit
LEO
Last TLE update1 day ago
Origin
Flag of USNRO/NRL (US)
ManufacturerNRL
MissionOperational Defense Sigint
Bus & MotorNRL MULTI, Unknown motor
Mass77 kg wet, 77 kg dry
Launch date (UTC)
1967-05-31 (57 years ago)
Launch vehicle
THOR SLV-2 AGENA D
Launch site
Air Force Western Test Range (AFWTR)
Object type
Payload
Rocket body
Debris
Shape & HBREll + 1 Ant, 18 m
Radar Cross Section1.399 m², Medium (>0.1 m² and < 1m²)

Expand to show TLE details & history

TLE from 1 day ago
0 OPS 5712 (P/L 153)
1 02874U 67053H   24280.74595019  .00000364  00000-0  30090-3 0  9996
2 02874  69.9769   0.7266 0010365 277.6959  82.2970 13.96646718920426
Epoch: 2024-10-06T17:54Z
Definitive object data (Epoch: 2024-10-06T17:54:10.096Z)
Latitude0.00002°
Longitude76.30105°
Altitude906.737 km
Speed7.399 km/s
True Right ascension00h 02m 54s
True Declination0° 00' 00"
Sunlit
Object was in full shadow at TLE epoch
Predictive object data (real-time)
Latitude69.363°
Longitude179.83589°
Altitude924.364 km
Speed7.392 km/s
Apparent Right ascension02h 28m 34s
Apparent Declination27° 24' 09"
Sunlit
Object is in daylight
Predictive observer data (real-time)
Local Sidereal Time12:32:26
Azimuth333.15° NNW
Elevation-17.46°
Doppler factor1
Orbital elements
Apogee911.022 km
Perigee895.928 km
Semi-major axis7,281.612 km
Eccentricity0.0010365
Inclination69.9769°
RAAN0.7266°
Arg. of periapsis277.6959°
True anomaly82.41472°
Mean anomaly82.297°
Eccentric anomaly82.35586°
Mean motion3.49303 °/min
BSTAR0.0003009
Period103.06 mins
No data available

OPS 5712 (P/L 153) Visibility forecast

Observer location: 39.9160978°, -105.1181434

OPS 5712 (P/L 153) is not visible in the next 10 days
Span
Click to sort rows by Start time (UTC) header in descending order
Start Az.
Max El. time (UTC)
Max El. Az.
Max El.
End time (UTC)
End Az.